Back to catalog

LEMUR-2-CELIJO-SB-PK

AliveCommunicationsSSO
NORAD 66781·PAYLOAD·🇺🇸 United States

Launched Nov 28, 2025 from Vandenberg Space Force Base

Loading…

Next Passes (next 24 hours)

TLE

FreshSource: Space-Track

Epoch: Sep 13, 2026, 17:35 UTC

1 66781U 25276DV  26256.73271057  .00004502  00000-0  35834-3 0  9990
2 66781  97.5149 324.5813 0001768 209.2794 150.8331 15.00868315 35901

Track LEMUR-2-CELIJO-SB-PK in real time with AllMySat

Download on the App Store